Showing default

DMSP 5D-2 F9 (USA 29), 18822

Orbit data source: Space-Track

DMSP 5D-2 F9 (USA 29), 18822 is a payload satellite owned by USAF SD (US) in SSO that was launched on Wed, 03 Feb 1988 UTC via an ATLAS E launch vehicle from the Air Force Western Test Range (AFWTR). Payload-class satellites include a variety of spacecraft equipped with specific instruments for various scientific and technological missions. These include communications satellites like Starlink; space stations such as the ISS; scientific satellites like the Hubble; Earth observation satellites from companies like Planet Labs, Umbra, and HawkEye 360; GPS; miniature CubeSats for education and research; and military/defense satellites.

Loading next visibility...
Identifier
18822, 1988-006A
Orbit
SSO
Country
Flag of USUS
Related business
Manufacturer
GE/East Windsor
Mission
Non-operational Defense Weather
Bus & Motor
BLOCK 5D, STAR 37S
Mass
~1,487 kg wet, ~773 kg dry
Launch date (UTC)
1988-02-03 (38 years ago)
Launch vehicle
ATLAS E
Launch site
Air Force Western Test Range (AFWTR)
Object type
Payload
Rocket body
Debris
Shape & HBR
Cyl + 1 Pan, 3.5 m
Radar Cross Section
9.012 m², Large (>1 m²)

Expand to show TLE details & history
Last TLE update: 2 days ago

TLE from 2 days ago
0 DMSP 5D-2 F9 (USA 29)
1 18822U 88006A   26171.46663584  .00000151  00000-0  76383-4 0  9990
2 18822  98.3574 337.9285 0007443  65.3683 294.8274 14.28833401996773
Epoch: 2026-06-20T11:11Z
TLE epoch observation values (Epoch: 2026-06-20T11:11:57.336Z)
Latitude
-0.00003°
Longitude
-98.74125°
Altitude
796.331 km
Speed
7.457 km/s
True Right ascension
22h 31m 42s
True Declination
0° 00' 00"
Sunlit
Object was in daylight at epoch
Visualization orbit readout
Latitude
Unknown
Longitude
Unknown
Altitude
Unknown
Speed
Unknown
Apparent Right ascension
Unknown
Apparent Declination
Unknown
Sunlit
N/A
Visualization observer readout
Local Sidereal Time
00:50:42
Azimuth
Unknown
Elevation
Unknown
Doppler factor
Unknown
Orbital elements
Apogee altitude
798.1 km
Perigee altitude
787.426 km
Semi-major axis
7,170.9 km
Eccentricity
0.00074
Inclination
98.3574°
RAAN
337.9285°
Arg. of periapsis
65.3683°
True anomaly
294.74996°
Mean anomaly
294.8274°
Eccentric anomaly
294.78868°
Mean motion
3.57423 °/min
Orbital period
100.72 mins
BSTAR
0.000076383
Loading maneuver chart data...
Computing Atmospheric mass density...

Documentation

Showing up to 5 results
|